Regional Weather Roundup
Issued by NWS Grand Forks, ND

Home | Current Version | Previous Version | Text Only | Print | Product List | Glossary On
Versions: 1 2 3 4 5 6 7 8 9 10 11 12 13 14 15 16 17 18 19 20 21 22 23 24 25 26 27 28 29 30 31 32 33 34 35 36 37 38 39 40 41 42 43 44 45 46 47 48 49 50
000
ASUS43 KFGF 230031
RWRFGF
PRAIRIE TO PINES  WEATHER ROUNDUP
NATIONAL WEATHER SERVICE EASTERN NORTH DAKOTA/GRAND FORKS ND
700 PM CDT SUN OCT 22 2017

 **SATELLITE DATA USED TO AUGMENT SKY COVER AT AUTOMATED STATIONS**
 *****  WEATHER ACROSS EASTERN NORTH DAKOTA  *****

CITY           SKY/WX    TMP DP  RH WIND       PRES   REMARKS
GRAND FORKS    CLOUDY    61  35  37 SW12      29.64F
6HR MIN TEMP:  61; 6HR MAX TEMP:  65; 6HR PCP: TRACE;

GRAND FRKS AFB LGT RAIN  61  34  36 W21G29    29.65S
DEVILS LAKE    CLOUDY    54  41  61 SW13      29.64R
6HR MIN TEMP:  54; 6HR MAX TEMP:  58; 6HR PCP: TRACE;

FARGO          CLOUDY    61  30  31 S13       29.71F
WAHPETON ARPT  NOT AVBL
$$

 ***** WEATHER ACROSS CENTRAL AND WESTERN NORTH DAKOTA  *****

CITY           SKY/WX    TMP DP  RH WIND       PRES   REMARKS
BISMARCK       CLOUDY    62  40  44 SW12      29.65F
6HR MIN TEMP:  59; 6HR MAX TEMP:  65;

MINOT          FAIR      52  41  66 S10       29.55F
6HR MIN TEMP:  52; 6HR MAX TEMP:  58; 6HR PCP: TRACE;

JAMESTOWN      CLOUDY    60  29  30 SW12      29.68F
6HR MIN TEMP:  60; 6HR MAX TEMP:  63; 6HR PCP: TRACE;

MINOT AFB      CLOUDY    51  42  70 S12       29.54F
GARRISON         N/A     52  42  69 S5        29.59F
WILLISTON      PTCLDY    55  45  67 W12       29.59R
                                      6HR PCP: TRACE;

DICKINSON      FAIR      56  39  53 W17       29.66R
6HR MIN TEMP:  56; 6HR MAX TEMP:  66; 6HR PCP: TRACE;

HETTINGER      LGT RAIN  51  44  77 NW29G59   29.79R
6HR MIN TEMP:  51; 6HR MAX TEMP:  69; 6HR PCP: TRACE;

$$

 *****  OTHER AIRPORT OBSERVATIONS IN OUR AREA  *****

CITY           SKY/WX    TMP DP  RH WIND       PRES   REMARKS
WALHALLA       FAIR     N/A N/A N/A S10       29.57F
GRAFTON AIRPOR NOT AVBL
VALLEY CITY AR NOT AVBL
CANDO          FAIR      50  43  76 SW9       29.62S
CAVALIER APRT  FAIR      55  39  54 S9G17     29.59F
GWINNER        PTCLDY    59  28  31 S9        29.74S
SHEYENNE NWR     N/A     59  29  32 S7        29.95S
ROLLA          FAIR      45  41  87 SW10      29.57S
 ***** THE ABOVE OBSERVATIONS ARE NON NWS ARE NOT QUALITY
       CONTROLLED AND MAY MIS-REPORT RAIN FOR SNOW...
$$

  *****  WEATHER ACROSS NORTHERN MINNESOTA  *****

CITY           SKY/WX    TMP DP  RH WIND       PRES   REMARKS
FLAG ISLAND    CLOUDY    57  28  33 SW16G23   29.62F
WARROAD        MOCLDY    57  34  41 SW13G21   29.67R
ROSEAU         CLOUDY    57  36  44 SW16      29.66S
HALLOCK        DRIZZLE   55  39  54 SW18      29.62S
THF RVR FALLS  CLOUDY    60  29  30 SW15      29.68F
6HR MIN TEMP:  58; 6HR MAX TEMP:  63; 6HR PCP: TRACE;

BAUDETTE       CLOUDY    56  29  35 S12       29.68F
6HR MIN TEMP:  55; 6HR MAX TEMP:  60;

WASKISH        MOCLDY    55  30  38 S6        29.73S
CROOKSTON      LGT RAIN  61  32  33 SW17G32   29.68S
STEPHEN NDAWN    N/A     57  37  47 SW10        N/A
GREENBUSH NDAW   N/A     57  34  41 SW13        N/A
$$
  *****  WEATHER ACROSS CENTRAL AND WEST MINNESOTA  *****

CITY           SKY/WX    TMP DP  RH WIND       PRES   REMARKS
FOSSTON        FAIR      55  28  35 S15       29.72F
BEMIDJI        FAIR      56  29  35 S7        29.76S
6HR MIN TEMP:  56; 6HR MAX TEMP:  60;

PARK RAPIDS    MOCLDY    55  32  41 S9        29.79S
6HR MIN TEMP:  53; 6HR MAX TEMP:  61;

ELBOW LAKE     MOCLDY    56  35  44 SW8       29.82R
6HR MIN TEMP:  55; 6HR MAX TEMP:  63;

WADENA         FAIR      54  36  50 S7        29.81S
DETROIT LAKES  FAIR      59  30  33 S12G18    29.77F
MOORHEAD       MOCLDY    61  28  29 S9        29.73S
FERGUS FALLS   MOCLDY    61  32  33 S15       29.79F
MORRIS MN      FAIR      55  36  47 S8        29.82S
STAPLES        FAIR      54  32  43 S8        29.83S
$$
  *****  WEATHER ELSEWHERE ACROSS MINNESOTA  *****

CITY           SKY/WX    TMP DP  RH WIND       PRES   REMARKS
DULUTH         FAIR      50  31  48 SW7       29.87R
6HR MIN TEMP:  50; 6HR MAX TEMP:  59;

INTRNTL FALLS  FAIR      50  30  46 S6        29.73F
6HR MIN TEMP:  50; 6HR MAX TEMP:  59;

ELY            FAIR      48  28  46 S5        29.84R
CLOQUET        FAIR      52  27  37 CALM      29.87S
WHEATON        FAIR      61  28  29 S9        29.81F
BRAINERD       FAIR      53  33  46 S8        29.85S
6HR MIN TEMP:  53; 6HR MAX TEMP:  62;

HIBBING        FAIR      47  29  49 S3        29.83R
6HR MIN TEMP:  46; 6HR MAX TEMP:  57;

ALEXANDRIA     FAIR      55  35  47 S8        29.84S
6HR MIN TEMP:  55; 6HR MAX TEMP:  63;

SAINT CLOUD    FAIR      52  37  56 S8        29.88S
6HR MIN TEMP:  52; 6HR MAX TEMP:  62;

MINNEAPOLIS    FAIR      57  34  41 S6        29.94R
6HR MIN TEMP:  57; 6HR MAX TEMP:  64;

$$

  *****  WEATHER ACROSS SOUTH DAKOTA  *****

CITY           SKY/WX    TMP DP  RH WIND       PRES   REMARKS
SIOUX FALLS    FAIR      56  33  42 S9        29.89S
6HR MIN TEMP:  56; 6HR MAX TEMP:  68;

BROOKINGS      FAIR      57  31  37 S8        29.86S
WATERTOWN      FAIR      53  36  52 S9        29.82S
6HR MIN TEMP:  53; 6HR MAX TEMP:  64;

HURON          FAIR      58  33  39 S7        29.82S
6HR MIN TEMP:  58; 6HR MAX TEMP:  66;

SISSETON         N/A     61  33  35 S9        29.78S
ABERDEEN       CLOUDY    61  31  32 S10       29.78R
6HR MIN TEMP:  61; 6HR MAX TEMP:  68;

MITCHELL       FAIR      62  31  31 SW6       29.85S
PIERRE         FAIR      61  33  35 SW9       29.78S
6HR MIN TEMP:  57; 6HR MAX TEMP:  71;

MOBRIDGE       CLOUDY    63  36  36 S8        29.71S
RAPID CITY     FAIR      58  29  33 W8        29.84S
6HR MIN TEMP:  58; 6HR MAX TEMP:  72;

$$

  *****  SOME WEATHER IN NEARBY STATES *****

CITY           SKY/WX    TMP DP  RH WIND       PRES   REMARKS
GLASGOW MT     FAIR      50  39  66 NW22G32   29.71R
6HR MIN TEMP:  50; 6HR MAX TEMP:  67; 6HR PCP:  0.01;

GREAT FALLS MT FAIR      50  24  36 W25G44    29.96R
6HR MIN TEMP:  50; 6HR MAX TEMP:  60;

CHEYENNE WY    FAIR      58  24  27 W16G31    30.12S
6HR MIN TEMP:  58; 6HR MAX TEMP:  65;

SCOTTSBLUFF NE FAIR      64  29  26 W25G36    29.97F
6HR MIN TEMP:  64; 6HR MAX TEMP:  70;

OMAHA NE       FAIR      59  33  37 S8        30.00F
6HR MIN TEMP:  59; 6HR MAX TEMP:  69;

DES MOINES IA  FAIR      58  38  47 SE8       30.03S
6HR MIN TEMP:  58; 6HR MAX TEMP:  67;

DAVENPORT IA   FAIR      50  49  96 CALM      30.09R
6HR MIN TEMP:  50; 6HR MAX TEMP:  53; 6HR PCP:  0.03;

CHICAGO IL     LGT RAIN  53  50  89 N7        30.04S
6HR MIN TEMP:  52; 6HR MAX TEMP:  70; 6HR PCP:  0.17;

EAU CLAIRE WI  FAIR      49  36  61 CALM      29.97R
6HR MIN TEMP:  49; 6HR MAX TEMP:  60;

LA CROSSE WI   FAIR      53  45  74 S8        30.02R
6HR MIN TEMP:  53; 6HR MAX TEMP:  57;

$$

  *****  SOME NATIONAL WEATHER *****

CITY           SKY/WX    TMP DP  RH WIND       PRES   REMARKS
LA GUARDIA NY  MOCLDY    67  53  61 SE6       30.36R
6HR MIN TEMP:  66; 6HR MAX TEMP:  75;

RALEIGH NC     MOCLDY    66  59  78 VRB6      30.29R
6HR MIN TEMP:  65; 6HR MAX TEMP:  79;

ATLANTA GA     MOCLDY    71  66  84 E16G22    30.13S
6HR MIN TEMP:  71; 6HR MAX TEMP:  79;

NEW ORLEANS LA MOCLDY    71  61  70 E8        29.94F
6HR MIN TEMP:  67; 6HR MAX TEMP:  75;

OKLAHOMA CITY  FAIR      62  35  36 CALM      30.14S
6HR MIN TEMP:  61; 6HR MAX TEMP:  67;

ALBUQUERQUE NM FAIR      69  23  17 N17       30.32R
6HR MIN TEMP:  57; 6HR MAX TEMP:  70;

SALT LAKE CITY MOCLDY    67  29  24 SE3       30.32S
6HR MIN TEMP:  60; 6HR MAX TEMP:  69;

LOS ANGELES CA FAIR


USA.gov is the U.S. government's official web portal to all federal, state and local government web resources and services.